When you browse on this site, cookies collect data to enhance your experience and personalize the content and advertising you see.
Visit our Privacy Policy to learn more. By continuing to use the site, you agree to this use of cookies and data.
  • In France
  • List of Countries
  • For 7 days
  • Water Temperature
  • Weather Map
  • Weather Widgets
  • user-avatar
    Login

    Hourly Weather Boma

    Today, 21 August, Wednesday

    Time Temperature Precipitation Wind Pressure Humidity
    00:00 +20°C° 1.5 mm 0 mps 701 mmHg 95%
    01:00 +20°C° 1.5 mm 0 mps 701 mmHg 98%
    02:00 +20°C° 2 mm 0 mps 701 mmHg 99%
    03:00 +20°C° 2 mm 0 mps 701 mmHg 99%
    04:00 +22°C° 2 mm 1 mps 701 mmHg 99%
    05:00 +20°C° 2.2 mm 0 mps 701 mmHg 99%
    06:00 +20°C° 2.2 mm 0 mps 702 mmHg 99%
    07:00 +20°C° 2.2 mm 0 mps 702 mmHg 99%
    08:00 +20°C° 2.1 mm 0 mps 703 mmHg 99%
    09:00 +20°C° 2.1 mm 0 mps 703 mmHg 99%
    10:00 +20°C° 2.1 mm 0 mps 703 mmHg 99%
    11:00 +23°C° 0.4 mm 1 mps 703 mmHg 94%
    12:00 +24°C° 0.4 mm 1 mps 703 mmHg 88%
    13:00 +25°C° 0.4 mm 1 mps 702 mmHg 83%
    14:00 +26°C° 0.1 mm 1 mps 701 mmHg 77%
    15:00 +27°C° 0.1 mm 1 mps 700 mmHg 71%
    16:00 +28°C° 0.1 mm 1 mps 700 mmHg 65%
    17:00 +26°C° 0 mm 1 mps 700 mmHg 74%
    18:00 +24°C° 0 mm 1 mps 700 mmHg 82%
    19:00 +23°C° 0 mm 1 mps 700 mmHg 91%
    20:00 +22°C° 0 mm 1 mps 700 mmHg 93%
    21:00 +20°C° 0 mm 0 mps 701 mmHg 95%
    22:00 +19°C° 0 mm 0 mps 701 mmHg 96%
    23:00 +19°C° 0 mm 0 mps 701 mmHg 97%

    Tomorrow, 22 August, Thursday

    Time Temperature Precipitation Wind Pressure Humidity
    00:00 +19°C° 0 mm 0 mps 701 mmHg 98%
    01:00 +18°C° 0 mm 0 mps 700 mmHg 99%
    02:00 +18°C° 0 mm 0 mps 700 mmHg 99%
    03:00 +18°C° 0 mm 0 mps 700 mmHg 99%
    04:00 +18°C° 0 mm 0 mps 700 mmHg 99%
    05:00 +18°C° 0 mm 0 mps 701 mmHg 98%
    06:00 +19°C° 0 mm 0 mps 701 mmHg 97%
    07:00 +19°C° 0 mm 0 mps 702 mmHg 96%
    08:00 +20°C° 0 mm 0 mps 702 mmHg 90%
    09:00 +24°C° 0 mm 1 mps 703 mmHg 84%
    10:00 +25°C° 0 mm 1 mps 703 mmHg 79%
    11:00 +27°C° 0.1 mm 1 mps 703 mmHg 70%
    12:00 +29°C° 0.1 mm 1 mps 702 mmHg 61%
    13:00 +31°C° 0.1 mm 1 mps 702 mmHg 52%
    14:00 +30°C° 0.8 mm 1 mps 701 mmHg 63%
    15:00 +29°C° 0.8 mm 1 mps 700 mmHg 74%
    16:00 +27°C° 0.8 mm 1 mps 699 mmHg 86%
    17:00 +24°C° 0.2 mm 0 mps 699 mmHg 88%
    18:00 +23°C° 0.2 mm 0 mps 700 mmHg 91%
    19:00 +21°C° 0.2 mm 0 mps 700 mmHg 93%
    20:00 +21°C° 0.1 mm 0 mps 701 mmHg 94%
    21:00 +20°C° 0.1 mm 0 mps 701 mmHg 95%
    22:00 +20°C° 0.1 mm 0 mps 702 mmHg 96%
    23:00 +20°C° 0.5 mm 0 mps 701 mmHg 96%

    Day after tomorrow, 23 August, Friday

    Time Temperature Precipitation Wind Pressure Humidity
    00:00 +20°C° 0.5 mm 0 mps 701 mmHg 97%
    01:00 +20°C° 0.5 mm 0 mps 701 mmHg 97%
    02:00 +20°C° 0.1 mm 0 mps 701 mmHg 98%
    03:00 +20°C° 0.1 mm 0 mps 701 mmHg 98%
    04:00 +19°C° 0.1 mm 0 mps 700 mmHg 99%
    05:00 +22°C° 0.2 mm 1 mps 701 mmHg 98%
    06:00 +22°C° 0.2 mm 1 mps 701 mmHg 98%
    07:00 +22°C° 0.2 mm 1 mps 702 mmHg 98%
    08:00 +22°C° 0 mm 1 mps 702 mmHg 96%
    09:00 +23°C° 0 mm 1 mps 702 mmHg 94%
    10:00 +23°C° 0 mm 1 mps 703 mmHg 92%
    11:00 +24°C° 0.3 mm 1 mps 702 mmHg 89%
    12:00 +25°C° 0.3 mm 1 mps 702 mmHg 87%
    13:00 +26°C° 0.3 mm 1 mps 701 mmHg 85%
    14:00 +26°C° 0.6 mm 1 mps 701 mmHg 82%
    15:00 +27°C° 0.6 mm 1 mps 700 mmHg 79%
    16:00 +27°C° 0.6 mm 1 mps 700 mmHg 75%
    17:00 +26°C° 0.4 mm 1 mps 700 mmHg 81%
    18:00 +24°C° 0.4 mm 1 mps 700 mmHg 87%
    19:00 +23°C° 0.4 mm 1 mps 700 mmHg 94%
    20:00 +22°C° 0.6 mm 1 mps 701 mmHg 95%
    21:00 +22°C° 0.6 mm 1 mps 701 mmHg 97%
    22:00 +21°C° 0.6 mm 1 mps 702 mmHg 98%
    23:00 +22°C° 1 mm 1 mps 702 mmHg 98%

    24 August, Saturday

    Time Temperature Precipitation Wind Pressure Humidity
    00:00 +22°C° 1 mm 1 mps 702 mmHg 98%
    01:00 +22°C° 1 mm 1 mps 701 mmHg 98%
    02:00 +22°C° 1.6 mm 1 mps 701 mmHg 98%
    03:00 +21°C° 1.6 mm 1 mps 701 mmHg 98%
    04:00 +20°C° 1.6 mm 2 mps 701 mmHg 98%
    05:00 +21°C° 1.2 mm 1 mps 702 mmHg 99%
    06:00 +21°C° 1.2 mm 1 mps 702 mmHg 99%
    07:00 +21°C° 1.2 mm 1 mps 702 mmHg 99%
    08:00 +21°C° 0.7 mm 1 mps 703 mmHg 99%
    09:00 +22°C° 0.7 mm 1 mps 703 mmHg 98%
    10:00 +22°C° 0.7 mm 1 mps 703 mmHg 98%
    11:00 +22°C° 0.7 mm 1 mps 703 mmHg 97%
    12:00 +23°C° 0.7 mm 2 mps 702 mmHg 95%
    13:00 +23°C° 0.7 mm 2 mps 702 mmHg 94%
    14:00 +23°C° 0.7 mm 2 mps 702 mmHg 94%
    15:00 +23°C° 0.7 mm 2 mps 701 mmHg 94%
    16:00 +23°C° 0.7 mm 2 mps 701 mmHg 95%
    17:00 +22°C° 0.2 mm 1 mps 701 mmHg 95%
    18:00 +22°C° 0.2 mm 1 mps 702 mmHg 96%
    19:00 +21°C° 0.2 mm 1 mps 702 mmHg 97%
    20:00 +21°C° 0 mm 1 mps 702 mmHg 97%
    21:00 +21°C° 0 mm 1 mps 703 mmHg 97%
    22:00 +19°C° 0 mm 0 mps 703 mmHg 98%
    23:00 +19°C° 0 mm 0 mps 703 mmHg 98%

    25 August, Sunday

    Time Temperature Precipitation Wind Pressure Humidity
    00:00 +19°C° 0 mm 0 mps 702 mmHg 98%
    01:00 +18°C° 0 mm 0 mps 702 mmHg 98%
    02:00 +18°C° 0 mm 0 mps 702 mmHg 98%
    03:00 +18°C° 0 mm 0 mps 702 mmHg 98%
    04:00 +18°C° 0 mm 0 mps 702 mmHg 98%
    05:00 +18°C° 0.1 mm 0 mps 702 mmHg 98%
    06:00 +18°C° 0.1 mm 0 mps 702 mmHg 98%
    07:00 +18°C° 0.1 mm 0 mps 703 mmHg 98%
    08:00 +19°C° 0.2 mm 0 mps 703 mmHg 98%
    09:00 +19°C° 0.2 mm 0 mps 704 mmHg 98%
    10:00 +20°C° 0.2 mm 0 mps 704 mmHg 97%
    11:00 +20°C° 0.3 mm 0 mps 703 mmHg 97%
    12:00 +20°C° 0.3 mm 0 mps 703 mmHg 96%
    13:00 +20°C° 0.3 mm 0 mps 702 mmHg 96%
    14:00 +20°C° 0.1 mm 0 mps 702 mmHg 97%
    15:00 +20°C° 0.1 mm 0 mps 702 mmHg 97%
    16:00 +20°C° 0.1 mm 0 mps 701 mmHg 98%
    17:00 +19°C° 0.1 mm 0 mps 701 mmHg 98%
    18:00 +19°C° 0.1 mm 0 mps 702 mmHg 99%
    19:00 +19°C° 0.1 mm 0 mps 702 mmHg 99%
    20:00 +19°C° 0 mm 0 mps 702 mmHg 99%
    21:00 +18°C° 0 mm 0 mps 702 mmHg 99%
    22:00 +18°C° 0 mm 0 mps 703 mmHg 99%
    23:00 +18°C° 0 mm 0 mps 702 mmHg 99%

    26 August, Monday

    Time Temperature Precipitation Wind Pressure Humidity
    00:00 +18°C° 0 mm 0 mps 702 mmHg 99%
    01:00 +18°C° 0 mm 0 mps 702 mmHg 99%
    02:00 +18°C° 0 mm 0 mps 701 mmHg 99%
    03:00 +18°C° 0 mm 0 mps 701 mmHg 99%
    04:00 +18°C° 0 mm 0 mps 701 mmHg 99%
    05:00 +18°C° 0 mm 0 mps 701 mmHg 99%
    06:00 +18°C° 0 mm 0 mps 701 mmHg 98%
    07:00 +18°C° 0 mm 0 mps 702 mmHg 98%
    08:00 +19°C° 0 mm 0 mps 702 mmHg 95%
    09:00 +20°C° 0 mm 0 mps 703 mmHg 92%
    10:00 +21°C° 0 mm 0 mps 703 mmHg 88%
    11:00 +21°C° 0 mm 0 mps 703 mmHg 84%
    12:00 +22°C° 0 mm 0 mps 702 mmHg 80%
    13:00 +25°C° 0 mm 1 mps 702 mmHg 76%
    14:00 +25°C° 0.1 mm 1 mps 702 mmHg 73%
    15:00 +26°C° 0.1 mm 1 mps 701 mmHg 69%
    16:00 +27°C° 0.1 mm 2 mps 701 mmHg 66%
    17:00 +25°C° 0.1 mm 1 mps 701 mmHg 75%
    18:00 +23°C° 0.1 mm 1 mps 701 mmHg 84%
    19:00 +21°C° 0.1 mm 1 mps 701 mmHg 93%
    20:00 +21°C° 0 mm 1 mps 702 mmHg 94%
    21:00 +18°C° 0 mm 0 mps 702 mmHg 96%
    22:00 +18°C° 0 mm 0 mps 703 mmHg 98%
    23:00 +18°C° 0 mm 0 mps 702 mmHg 98%
    Show more